Tracking 17631 objects as of 3-May-2016
HD Live streaming from Space Station
objects crossing your sky now

INSAT 1C

Track INSAT 1C now!
INSAT 1C is classified as:


NORAD ID: 19330
Int'l Code: 1988-063A
Perigee: 35,842.3 km
Apogee: 35,898.0 km
Inclination: 15.0 °
Period: 1,440.0 minutes
Semi major axis: 42241 km
RCS: 1.9952 m2 (large)
Launch date: July 21, 1988
Source: India (IND)
Launch site: FRENCH GUIANA (FRGUI)
Your satellite tracking list
Your tracking list is empty





NASA's NSSDC Master Catalog

Two Line Element Set (TLE):
1 19330U 88063A   16122.97747840  .00000045  00000-0  00000+0 0  9997
2 19330  14.9915   0.5644 0006595  73.0909 194.3344  1.00272578 83134
Source of the keplerian elements: AFSPC

N2YO: 383